PROFILE

 METAR AND TAF INFORMATION
ADDS - METARS form results

(0031 UTC 10 December 2019)
http://aviationweather.gov/metar/data/
 
LSGG 100020Z AUTO 34003KT 300V020 9999 FEW031 BKN044 05/01 Q1022 NOSIG
LSGG 092350Z AUTO VRB03KT 9999 FEW037 BKN043 06/00 Q1022 NOSIG
TAF LSGG 092325Z 1000/1106 VRB03KT 9999 FEW025 BKN040 TX06/1015Z TN02/1006Z TNM02/1106Z TEMPO 1000/1002 SHRA BECMG 1002/1004 SCT030 PROB30 TEMPO 1004/1008 MIFG BECMG 1008/1011 04008KT CAVOK BECMG 1017/1019 VRB03KT 

 AIRPORT MAP

 RUNWAY INFORMATION
Runway 05 Runway length 12795 ft Runway width 164 ft
Runway elevation 1411 ft Runway displaced threshold 1082 ft Runway heading 46
Runway 23 Runway length 12795 ft Runway width 164 ft
Runway elevation 1365 ft Runway displaced threshold 0 ft Runway heading 226
Runway 05L Runway length 2700 ft Runway width 98 ft
Runway elevation 1378 ft Runway displaced threshold 613 ft Runway heading 46
Runway 23R Runway length 2700 ft Runway width 98 ft
Runway elevation 1393 ft Runway displaced threshold 994 ft Runway heading 226

 AIRPORT FREQUENCIES
Type APP Name APP Frequency 120.3 MHZ
Type ARR Name ARR Frequency 136.25 MHZ
Type ATIS Name ATIS Frequency 135.575 MHZ
Type DEP Name DEP Frequency 119.525 MHZ
Type GND Name GND Frequency 121.675 MHZ
Type GTE Name APN Frequency 121.75 MHZ
Type TWR Name TWR Frequency 118.7 MHZ

 AIRPORT NEAR NAVIGATION AIDS
Type NDB Name Gland Frequency 375 KHZ
Type VOR-DME Name Geneva Cointrin Frequency 115750 KHZ
Type VOR-DME Name Passeiry Frequency 116600 KHZ